Tracking 25620 objects as of 18-May-2022
HD Live streaming from Space Station
objects crossing your sky now

COSMOS 1375 DEB

Track COSMOS 1375 DEB now!
10-day predictions


NORAD ID: 16202
Int'l Code: 1982-055D
Perigee: 854.0 km
Apogee: 969.5 km
Inclination: 65.8 °
Period: 103.1 minutes
Semi major axis: 7282 km
RCS: 0.038 m2 (small)
Launch date: June 6, 1982
Source: Commonwealth of Independent States (former USSR) (CIS)
Launch site: PLESETSK MISSILE AND SPACE COMPLEX (PKMTR)

Note: This is SATELLITE DEBRIS
aabbcc
Your satellite tracking list
Your tracking list is empty




NASA's NSSDC Master Catalog

Two Line Element Set (TLE):
1 16202U 82055D   22138.17509755  .00000335  00000-0  29370-3 0  9991
2 16202  65.8278 172.1434 0079266  24.0416  35.7519 13.96880959 29692
Source of the keplerian elements: AFSPC